This is the latest recevied weather packets stored in our database for station/object KK6LVQ-13. If no packets are shown the sender has not sent any weather packets the latest 10 day(s).
| Time | Temp. | Humidity | Pressure | Rain* | Wind** | Luminosity | Snow |
|---|---|---|---|---|---|---|---|
| 1778205357 | 16.11° C | 78% | 1021.3 hPa | 0 mm | - | 70 W/m² | - |
| 1778205054 | 16.67° C | 77% | 1021.1 hPa | 0 mm | - | 80 W/m² | - |
| 1778204750 | 17.22° C | 76% | 1021.3 hPa | 0 mm | - | 91 W/m² | - |
| 1778204447 | 17.22° C | 75% | 1020.9 hPa | 0 mm | - | 102 W/m² | - |
| 1778204143 | 17.22° C | 75% | 1021 hPa | 0 mm | - | 115 W/m² | - |
| 1778203840 | 17.78° C | 74% | 1021.1 hPa | 0 mm | - | 127 W/m² | - |
| 1778203537 | 17.78° C | 74% | 1021.1 hPa | 0 mm | - | 141 W/m² | - |
| 1778203235 | 17.78° C | 73% | 1020.9 hPa | 0 mm | - | 155 W/m² | - |
| 1778202933 | 17.78° C | 74% | 1020.9 hPa | 0 mm | - | 169 W/m² | - |
| 1778202630 | 17.78° C | 74% | 1021 hPa | 0 mm | - | 183 W/m² | - |
| 1778202326 | 18.33° C | 73% | 1020.8 hPa | 0 mm | - | 199 W/m² | - |
| 1778202024 | 18.33° C | 72% | 1021.2 hPa | 0 mm | - | 218 W/m² | - |
| 1778201720 | 18.89° C | 72% | 1021 hPa | 0 mm | - | 233 W/m² | - |
| 1778201417 | 18.89° C | 71% | 1020.7 hPa | 0 mm | - | 250 W/m² | - |
| 1778201113 | 18.89° C | 71% | 1021 hPa | 0 mm | - | 266 W/m² | - |
| 1778200810 | 19.44° C | 70% | 1021.1 hPa | 0 mm | - | 282 W/m² | - |
| 1778200506 | 19.44° C | 70% | 1020.9 hPa | 0 mm | - | 298 W/m² | - |
| 1778200204 | 19.44° C | 69% | 1021.1 hPa | 0 mm | - | 312 W/m² | - |
| 1778199900 | 19.44° C | 68% | 1021.1 hPa | 0 mm | - | 330 W/m² | - |
| 1778199597 | 20° C | 67% | 1020.9 hPa | 0 mm | - | 346 W/m² | - |
| 1778199293 | 20° C | 67% | 1021 hPa | 0 mm | - | 361 W/m² | - |
| 1778198990 | 20° C | 66% | 1020.8 hPa | 0 mm | - | 377 W/m² | - |
| 1778198685 | 20.56° C | 67% | 1020.9 hPa | 0 mm | - | 391 W/m² | - |
| 1778198382 | 20.56° C | 66% | 1020.8 hPa | 0 mm | - | 409 W/m² | - |
| 1778198079 | 21.67° C | 64% | 1021 hPa | 0 mm | - | 423 W/m² | - |
* Rain latest hour (hover to see other rain measurements)
** Current wind speed in m/s (hover to see current wind gust speed)